"Time","Temp","Dewpoint","Humidity","Pressure","Direction","Speed","Gust","Precip","PrecipRate"
"00:04:56","25","17.9","74","30.17","73","0","0","0.00","0.00"
"00:09:57","24.7","17.8","74.6","30.17","73","0","0","0.00","0.00"
"00:14:57","24.6","17.8","75","30.17","73","0","0","0.00","0.00"
"00:19:59","24.2","17.5","75.3","30.17","73","0","0","0.00","0.00"
"00:24:58","24","17.7","76.9","30.17","73","0","0","0.00","0.00"
"00:29:56","23.8","17.6","77","30.17","73","0","0","0.00","0.00"
"00:34:56","23.6","17.4","77.1","30.16","73","0","0","0.00","0.00"
"00:39:59","23.5","17.6","78","30.16","73","0","0","0.00","0.00"
"00:44:57","23.4","17.6","78","30.16","73","0","0","0.00","0.00"
"00:49:56","23.3","17.4","77.7","30.16","73","0","0","0.00","0.00"
"00:54:58","23","17.2","78","30.16","73","0","0","0.00","0.00"
"00:59:56","22.8","17.2","78.7","30.16","73","0","0","0.00","0.00"
"01:04:58","22.7","17.4","79.7","30.16","73","0","0","0.00","0.00"
"01:09:56","22.7","17.3","79.2","30.16","73","0","0","0.00","0.00"
"01:14:59","22.5","17.2","79.4","30.16","73","0","0","0.00","0.00"
"01:19:57","22.3","17.1","80","30.16","73","0","0","0.00","0.00"
"01:24:59","22.1","16.9","80","30.16","73","0","0","0.00","0.00"
"01:29:57","21.9","17","80.9","30.16","69","0.3","3","0.00","0.00"
"01:34:56","22","17.2","81.7","30.15","67","1.4","3.5","0.00","0.00"
"01:39:59","22.1","17.5","82.3","30.15","67","0.2","2.3","0.00","0.00"
"01:44:57","22.1","17.7","83","30.15","67","0.6","3.5","0.00","0.00"
"01:49:56","22","17.6","83","30.15","67","0.4","2.3","0.00","0.00"
"01:54:59","22","17.6","83.2","30.15","67","0","0","0.00","0.00"
"01:59:57","21.8","17.4","83","30.15","67","0","0","0.00","0.00"
"02:04:58","21.7","17.3","83.2","30.14","67","0","0","0.00","0.00"
"02:09:57","21.5","17.4","83.8","30.14","67","0.9","3.5","0.00","0.00"
"02:14:59","21.3","16.9","83.1","30.14","67","0.8","2.3","0.00","0.00"
"02:19:58","21.1","17","84","30.13","67","0.3","2","0.00","0.00"
"02:24:57","21","17.1","84.8","30.13","67","1.6","2.3","0.00","0.00"
"02:29:59","21.1","17.3","85","30.13","67","0.7","2.3","0.00","0.00"
"02:34:57","21.1","17.3","85","30.13","67","0","0","0.00","0.00"
"02:39:56","21","17.2","85","30.13","67","0","0","0.00","0.00"
"02:44:59","20.9","17.1","85","30.13","67","0","0","0.00","0.00"
"02:49:57","20.7","16.9","85","30.12","67","0","0","0.00","0.00"
"02:54:56","20.6","16.8","85","30.12","67","0","0","0.00","0.00"
"02:59:58","20.4","16.7","85.1","30.12","67","0","0","0.00","0.00"
"03:04:56","20.3","16.7","85.6","30.12","67","0","0","0.00","0.00"
"03:09:59","20.2","16.7","86","30.12","67","0","0","0.00","0.00"
"03:14:58","20.1","16.6","86","30.12","67","0","0","0.00","0.00"
"03:19:56","20","16.5","86","30.11","67","0","0","0.00","0.00"
"03:24:58","19.9","16.4","86","30.11","67","0","0","0.00","0.00"
"03:29:57","19.7","16.1","85.7","30.11","67","0","0","0.00","0.00"
"03:34:59","19.6","16.1","86","30.10","67","0","0","0.00","0.00"
"03:39:58","19.5","16","86","30.10","67","0","0","0.00","0.00"
"03:44:56","19.6","16.2","86.5","30.10","67","0","0","0.00","0.00"
"03:49:59","19.5","16","86","30.10","67","0","0","0.00","0.00"
"03:54:57","19.4","15.9","86","30.10","67","0","0","0.00","0.00"
"03:59:56","19.4","16.2","87","30.10","70","0.8","3.5","0.00","0.00"
"04:04:57","19.5","16.3","87","30.09","71","1.2","2.3","0.00","0.00"
"04:09:59","19.8","16.5","86.7","30.09","71","0","1.2","0.00","0.00"
"04:14:58","19.9","16.4","86","30.10","71","0","0","0.00","0.00"
"04:19:57","19.8","16.2","85.7","30.10","71","0","1.2","0.00","0.00"
"04:24:59","19.9","16.4","86","30.10","71","0.6","2.3","0.00","0.00"
"04:29:58","20.4","16.6","85.2","30.10","72","0.6","2.3","0.00","0.00"
"04:34:56","20.9","16.9","84.2","30.10","98","1.8","3.5","0.00","0.00"
"04:39:59","21.3","16.9","82.6","30.10","131","0.7","3","0.00","0.00"
"04:44:57","21.3","16.7","82","30.10","132","0.4","2.3","0.00","0.00"
"04:49:56","21.4","16.8","82","30.09","176","2","6","0.00","0.00"
"04:54:58","21.5","16.9","82","30.09","183","1.9","4","0.00","0.00"
"04:59:57","21.6","16.9","81.8","30.10","182","1.4","3.5","0.00","0.00"
"05:04:58","21.7","16.8","81","30.10","182","1.3","3.5","0.00","0.00"
"05:09:56","21.7","16.8","81","30.10","182","1.1","3.5","0.00","0.00"
"05:14:59","21.7","16.8","81","30.10","182","1","3.5","0.00","0.00"
"05:19:57","21.6","16.7","81","30.10","182","1.5","3.5","0.00","0.00"
"05:24:56","21.6","16.7","81","30.10","182","2","5","0.00","0.00"
"05:29:58","21.7","16.8","81","30.10","180","1.1","4","0.00","0.00"
"05:34:56","21.8","16.9","81","30.10","180","1","3.5","0.00","0.00"
"05:39:59","21.9","17","81","30.10","180","0.9","2.3","0.00","0.00"
"05:44:57","22","16.9","80.4","30.10","180","1.1","3.5","0.00","0.00"
"05:49:56","21.9","16.8","80.2","30.10","181","1.2","3.5","0.00","0.00"
"05:54:58","21.9","17","81","30.10","181","1","2.3","0.00","0.00"
"05:59:56","22.1","17.1","80.8","30.10","181","0.5","2.3","0.00","0.00"
"06:04:58","22.2","17","80","30.10","180","1.2","3.5","0.00","0.00"
"06:09:57","22.3","17.1","80","30.10","180","1.1","3.5","0.00","0.00"
"06:14:59","22.3","16.9","79.2","30.10","180","0","1.2","0.00","0.00"
"06:19:58","22.1","16.8","79.6","30.10","180","0","0","0.00","0.00"
"06:24:56","22.1","16.9","80.1","30.10","179","0.8","4","0.00","0.00"
"06:29:59","22.2","17.1","80.3","30.10","180","1.1","4","0.00","0.00"
"06:34:57","22.2","17","80","30.09","180","0.3","3","0.00","0.00"
"06:39:56","22.2","17","80","30.09","180","0.5","3.5","0.00","0.00"
"06:44:58","22.2","17","80","30.09","180","0.1","2.3","0.00","0.00"
"06:49:57","22.2","17","80","30.09","180","0","0","0.00","0.00"
"06:54:56","22.2","17","80","30.09","179","0.7","2.3","0.00","0.00"
"06:59:59","22.4","17.2","80","30.09","175","1.2","4","0.00","0.00"
"07:04:52","22.6","17.4","80","30.09","189","1.5","4","0.00","0.00"
"07:09:58","22.7","17.5","80","30.09","188","1.6","5","0.00","0.00"
"07:14:57","22.8","17.6","80","30.09","183","1.2","5","0.00","0.00"
"07:19:59","23","17.6","79.5","30.08","158","2.6","7","0.00","0.00"
"07:24:57","23.2","17.7","79","30.08","163","2.6","9","0.00","0.00"
"07:29:59","23.5","17.9","79","30.09","179","3.2","9.2","0.00","0.00"
"07:34:57","23.7","18.1","79","30.09","192","3.2","6","0.00","0.00"
"07:39:59","24","18.4","79","30.09","187","3.5","7","0.00","0.00"
"07:44:57","24.3","18.7","79","30.09","181","2","5.8","0.00","0.00"
"07:49:59","24.5","18.8","78.5","30.09","193","2.1","6","0.00","0.00"
"07:54:57","24.8","18.9","78","30.09","175","1.4","4","0.00","0.00"
"07:57:48","25","19.1","78","30.09","174","2.7","5","0.00","0.00"
"08:34:59","29.1","21.2","71.8","30.07","189","5.4","12","0.00","0.00"
"08:39:58","29.4","21.4","71.5","30.07","182","5.1","13","0.00","0.00"
"08:44:59","30","21.4","70.2","30.07","174","4.9","10.4","0.00","0.00"
"08:49:59","30.6","21.7","69.1","30.06","165","4.2","9.2","0.00","0.00"
"08:54:58","31.2","21.8","67.6","30.06","168","5.7","12","0.00","0.00"
"08:59:57","31.5","22","67.7","30.06","191","6.4","14","0.00","0.00"
"09:04:56","31.8","22.2","67.2","30.05","203","8.5","13.8","0.00","0.00"
"09:09:57","32.2","22.2","66.2","30.05","199","8.1","14","0.00","0.00"
"09:14:58","32.7","22.4","65.3","30.05","196","7.3","13","0.00","0.00"
"09:19:57","33.4","22.4","63.6","30.03","184","6.3","13","0.00","0.00"
"09:24:56","34.1","22.6","62.6","30.03","186","5.3","13","0.00","0.00"
"09:29:59","34.6","22.4","60.8","30.03","204","8.7","16.1","0.00","0.00"
"09:34:59","35.1","22.7","60.3","30.03","187","6","15","0.00","0.00"
"09:39:59","35.7","22.6","58.6","30.03","184","7.8","18.4","0.00","0.00"
"09:44:58","36.1","22.3","56.9","30.03","187","7.4","15","0.00","0.00"
"09:49:57","36.8","23.1","57.3","30.02","211","7","14","0.00","0.00"
"09:54:57","37.6","23.6","56.7","30.02","206","5","11.5","0.00","0.00"
"09:59:56","38.5","23.9","55.4","30.03","213","6.4","14","0.00","0.00"
"10:04:57","39","23.2","52.7","30.03","207","7.1","12","0.00","0.00"
"10:09:59","39.6","23.4","52","30.03","207","5.9","11","0.00","0.00"
"10:14:56","40.4","24.1","51.8","30.03","212","6.1","12","0.00","0.00"
"10:19:59","41.5","24.2","50.1","30.01","224","5.8","12","0.00","0.00"
"10:24:58","42.1","23.6","47.7","30.01","214","5.2","10.4","0.00","0.00"
"10:29:57","42.3","23.5","47","30.02","193","4.8","11.5","0.00","0.00"
"10:34:57","42.6","23","45.5","30.02","203","4.3","9","0.00","0.00"
"10:39:57","42.6","22.5","44.7","30.02","231","5.5","10.4","0.00","0.00"
"10:44:57","42.1","21.7","44","30.02","223","4.7","9.2","0.00","0.00"
"10:49:57","41.7","21.8","44.7","30.01","197","3.9","10.4","0.00","0.00"
"10:54:56","41.7","21.8","44.8","30.01","202","3.9","8.1","0.00","0.00"
"10:59:59","42.3","22.5","45.2","30.01","220","4.1","10.4","0.00","0.00"
"11:04:57","43.4","23.4","44.9","30.00","200","4.4","9.2","0.00","0.00"
"11:09:59","44","22.9","43","30.00","188","3.1","8.1","0.00","0.00"
"11:14:56","44.3","22.9","42.5","30.00","201","3.8","9","0.00","0.00"
"11:19:59","44.4","22.6","41.8","30.00","228","4.1","9.2","0.00","0.00"
"11:24:58","45.1","23.8","42.7","30.00","222","4.2","7","0.00","0.00"
"11:29:58","46.1","24.1","41.7","30.00","222","6.1","11","0.00","0.00"
"11:34:58","46.7","23.7","40.2","30.00","231","6.4","11.5","0.00","0.00"
"11:39:58","47.8","25","40.6","30.00","242","6.3","18","0.00","0.00"
"11:44:57","48.4","23.9","37.9","30.00","236","9.1","15","0.00","0.00"
"11:49:56","47.9","23.3","37.8","30.00","234","7.5","12.7","0.00","0.00"
"11:54:56","47.3","23.7","39.1","30.00","237","6.7","13","0.00","0.00"
"11:59:59","47.3","23.8","39.3","30.00","307","5.6","13","0.00","0.00"
"12:04:57","47","23.1","38.6","30.00","312","6","16.1","0.00","0.00"
"12:09:59","46.8","24.1","40.6","30.00","285","6.2","15","0.00","0.00"
"12:14:59","46.5","25","42.7","30.01","287","6","12","0.00","0.00"
"12:19:58","47","25.2","42.2","30.01","307","5.9","17.3","0.00","0.00"
"12:24:57","47.5","25.8","42.5","30.01","298","7.4","17","0.00","0.00"
"12:29:57","47.1","25.2","42","30.01","330","9.9","17.3","0.00","0.00"
"12:34:56","46.6","23.5","40","30.01","311","10.8","20","0.00","0.00"
"12:39:56","46.2","22.3","38.6","30.01","290","10.2","21","0.00","0.00"
"12:44:59","45.9","21.5","37.6","30.01","302","10.7","23","0.00","0.00"
"12:49:58","45.7","20.5","36.4","30.01","318","12.2","30","0.00","0.00"
"12:54:57","45.5","20.7","37","30.01","281","10.9","29.9","0.00","0.00"
"12:59:56","46.1","20.6","36","30.03","284","6.9","20","0.00","0.00"
"13:04:58","46.2","20.4","35.6","30.03","310","9.7","20","0.00","0.00"
"13:09:56","45.8","19.7","35","30.03","251","9.5","26.5","0.00","0.00"
"13:14:56","45.1","18.2","33.8","30.03","290","12.2","25.3","0.00","0.00"
"13:19:59","44.4","17.8","34.2","30.03","302","12.1","21.9","0.00","0.00"
"13:24:59","44.2","17.9","34.5","30.03","277","11.7","27","0.00","0.00"
"13:29:58","44.3","18.4","35.1","30.04","271","10.6","21","0.00","0.00"
"13:34:57","43.8","16.9","33.6","30.04","280","9.8","21","0.00","0.00"
"13:39:58","44.1","18.2","35.1","30.04","299","8.7","21","0.00","0.00"
"13:44:57","44.1","17.2","33.7","30.04","283","10.3","20.7","0.00","0.00"
"13:49:57","43.7","17.3","34.2","30.04","301","9.6","22","0.00","0.00"
"13:54:56","44","18","34.9","30.04","269","10.1","19","0.00","0.00"
"13:59:59","44.4","17.9","34.4","30.05","283","10.5","23","0.00","0.00"
"14:04:57","44.5","18.6","35.2","30.05","287","8.7","29","0.00","0.00"
"14:09:59","45","19.2","35.4","30.05","303","9.3","22","0.00","0.00"
"14:14:59","45.2","18.3","33.7","30.06","315","12.3","24.2","0.00","0.00"
"14:19:58","44.8","19","35.3","30.06","319","10.9","29","0.00","0.00"
"14:24:58","44.1","20.9","39.4","30.06","338","12.1","28.8","0.00","0.00"
"14:29:57","42.6","21.2","42.1","30.08","319","9","18.4","0.00","0.00"
"14:34:59","41.6","20.7","42.8","30.08","309","12","24","0.00","0.00"
"14:39:59","41.2","18","38.8","30.08","322","11.9","24.2","0.00","0.00"
"14:44:59","40.8","17.4","38.5","30.09","310","10","20","0.00","0.00"
"14:49:58","40.7","17.1","38.2","30.09","303","10.5","21","0.00","0.00"
"14:54:58","41.2","17.7","38.2","30.09","300","12.2","25","0.00","0.00"
"14:59:57","40.5","17.5","39.1","30.11","302","9.2","25.3","0.00","0.00"
"15:04:58","40","20.5","45.3","30.11","325","10.8","20","0.00","0.00"
"15:09:56","39.1","20.6","47","30.11","291","7.9","22","0.00","0.00"
"15:14:56","38.7","18.5","43.8","30.12","281","9.2","25","0.00","0.00"
"15:19:59","38.8","16.4","39.9","30.12","310","12.8","29","0.00","0.00"
"15:24:59","39.3","14.3","35.6","30.12","308","12.8","29","0.00","0.00"
"15:29:58","39.9","14.6","35.3","30.14","318","10.6","33","0.00","0.00"
"15:34:58","40","12.5","32","30.14","313","14.8","33.4","0.00","0.00"
"15:39:57","39.8","12.5","32.2","30.14","321","9.5","26.5","0.00","0.00"
"15:44:57","40","12","31.3","30.14","312","10.5","22","0.00","0.00"
"15:49:56","40.1","11","29.8","30.14","308","10.9","22","0.00","0.00"
"15:54:56","40.2","10.5","29.2","30.14","278","9.9","28","0.00","0.00"
"15:59:59","39.9","10.9","30","30.16","315","10.6","23","0.00","0.00"
"16:04:57","39.6","11.6","31.3","30.16","297","10.1","23","0.00","0.00"
"16:09:58","39.2","12","32.4","30.16","306","8.8","21.9","0.00","0.00"
"16:14:58","39.4","13","33.6","30.17","22","9.5","25","0.00","0.00"
"16:19:58","39.4","13.2","33.8","30.17","294","8.2","23","0.00","0.00"
"16:24:57","39.2","11","31.1","30.17","311","10","23","0.00","0.00"
"16:29:56","38.6","9.5","29.7","30.19","292","7.8","21.9","0.00","0.00"
"16:34:58","38.4","9.6","30","30.19","314","8.4","20","0.00","0.00"
"16:39:57","38.1","9.3","29.9","30.19","311","9.3","20","0.00","0.00"
"16:44:57","37.9","9.5","30.5","30.21","325","11.1","22","0.00","0.00"
"16:49:57","37.5","8.8","30","30.21","291","10.9","34.5","0.00","0.00"
"16:54:56","37.1","8.1","29.5","30.21","306","8.9","23","0.00","0.00"
"16:59:59","36.8","8","29.7","30.22","311","9.5","24.2","0.00","0.00"
"17:04:57","36.3","7.4","29.5","30.22","324","10.3","18.4","0.00","0.00"
"17:09:59","35.8","7.2","29.8","30.22","299","9.8","27","0.00","0.00"
"17:14:59","35.5","6.7","29.5","30.23","324","12.4","23","0.00","0.00"
"17:19:58","35.3","6.9","30","30.23","329","10","23","0.00","0.00"
"17:24:58","35","6.6","30","30.23","319","11.1","20","0.00","0.00"
"17:29:58","34.7","7.1","31","30.24","310","8.6","19.6","0.00","0.00"
"17:34:58","34.5","7.7","32.2","30.24","319","10","20","0.00","0.00"
"17:39:58","34.3","7.5","32.1","30.24","311","7.9","19.6","0.00","0.00"
"17:44:58","34.1","8.3","33.6","30.26","327","7.6","18.4","0.00","0.00"
"17:49:58","33.7","9.6","36.1","30.26","328","6.9","17.3","0.00","0.00"
"17:54:58","33.3","9.8","37","30.26","325","9.7","22","0.00","0.00"
"17:59:58","32.8","9.3","37","30.28","347","11.7","24.2","0.00","0.00"
"18:04:57","32.4","9.1","37.2","30.28","339","9.6","19.6","0.00","0.00"
"18:09:58","32.1","8.9","37.3","30.28","332","8.3","22","0.00","0.00"
"18:14:59","31.8","8.6","37.2","30.30","316","5.9","15","0.00","0.00"
"18:19:59","31.6","8.5","37.3","30.30","325","7.2","14","0.00","0.00"
"18:24:59","31.4","8.3","37.3","30.30","325","7.1","17","0.00","0.00"
"18:29:59","31.2","8.1","37.4","30.30","330","8.8","19.6","0.00","0.00"
"18:34:59","31","8.3","38","30.30","329","7.1","18.4","0.00","0.00"
"18:39:56","30.9","8.6","38.7","30.30","340","7.9","17.3","0.00","0.00"
"18:44:56","30.6","8.5","39","30.31","315","4.9","15","0.00","0.00"
"18:49:59","30.3","8.2","38.9","30.31","333","8","16.1","0.00","0.00"
"18:54:59","30","7.5","38.2","30.31","347","7.5","24.2","0.00","0.00"
"18:59:59","29.8","7.4","38.2","30.34","332","3.6","11.5","0.00","0.00"
"19:04:57","29.5","7.4","38.8","30.34","322","3.3","12","0.00","0.00"
"19:09:56","29.3","7.2","38.7","30.34","33","2.8","8.1","0.00","0.00"
"19:14:57","29.2","7.2","39","30.36","336","1.8","4.6","0.00","0.00"
"19:19:57","29","7.1","39","30.36","346","4.5","12","0.00","0.00"
"19:24:56","28.8","6.9","39","30.36","346","4.2","13","0.00","0.00"
"19:29:56","28.8","6.6","38.4","30.37","342","7.8","15","0.00","0.00"
"19:34:56","28.7","6.6","38.6","30.37","345","5.3","13","0.00","0.00"
"19:39:56","28.6","6.7","39","30.37","328","5.5","13","0.00","0.00"
"19:44:56","28.5","6.5","38.8","30.37","321","6.1","13","0.00","0.00"
"19:49:56","28.4","6.2","38.3","30.37","330","6.2","13","0.00","0.00"
"19:54:56","28.3","6","38.2","30.37","320","6.5","13","0.00","0.00"
"19:59:56","28.2","6","38.3","30.38","322","6.8","14","0.00","0.00"
"20:04:58","28.1","5.7","38","30.38","332","7.4","15","0.00","0.00"
"20:09:56","28.1","5.7","38","30.38","321","8.8","17.3","0.00","0.00"
"20:14:56","28","5.4","37.6","30.39","328","6.8","12","0.00","0.00"
"20:19:56","27.8","5.2","37.6","30.39","324","9.9","22","0.00","0.00"
"20:24:59","27.8","4.8","36.8","30.39","329","9.5","21.9","0.00","0.00"
"20:29:59","27.7","4.9","37.1","30.40","320","7.2","15","0.00","0.00"
"20:34:59","27.6","4.7","37.1","30.40","320","7.9","16.1","0.00","0.00"
"20:39:59","27.5","4.5","36.8","30.40","333","8.1","18.4","0.00","0.00"
"20:44:59","27.4","4.6","37.2","30.42","329","7.4","12","0.00","0.00"
"20:49:59","27.3","4.6","37.3","30.42","341","6.7","17.3","0.00","0.00"
"20:54:57","27.2","4.5","37.5","30.42","331","6.5","14","0.00","0.00"
"20:59:56","27","4.7","38","30.43","323","3.1","6.9","0.00","0.00"
"21:04:58","26.8","4.6","38","30.43","329","3.4","13","0.00","0.00"
"21:09:56","26.7","4.4","37.8","30.43","320","5.1","12","0.00","0.00"
"21:14:57","26.6","4.4","38","30.43","325","6.1","13","0.00","0.00"
"21:19:56","26.6","4.4","38","30.43","328","7.4","16.1","0.00","0.00"
"21:24:56","26.5","4.3","38","30.43","325","6.4","12","0.00","0.00"
"21:29:56","26.4","4.3","38.2","30.43","340","7.6","18.4","0.00","0.00"
"21:34:56","26.3","4.2","38.2","30.43","340","6.5","17.3","0.00","0.00"
"21:39:56","26.2","4.3","38.6","30.43","333","6","15","0.00","0.00"
"21:44:56","26.1","4.5","39","30.44","337","4","11.5","0.00","0.00"
"21:49:56","26","4.4","39","30.44","352","4.4","12","0.00","0.00"
"21:54:56","25.8","4.3","39.2","30.44","340","2.9","7","0.00","0.00"
"21:59:56","25.6","4.1","39.2","30.45","349","4.8","13","0.00","0.00"
"22:04:58","25.6","4.3","39.5","30.45","341","4.6","13","0.00","0.00"
"22:09:56","25.5","4.2","39.5","30.45","339","4.9","14","0.00","0.00"
"22:14:56","25.4","4.3","39.7","30.45","325","3.7","10.4","0.00","0.00"
"22:19:56","25.3","4.3","39.9","30.45","331","3.6","7","0.00","0.00"
"22:24:56","25.2","4.1","39.8","30.45","332","4.4","11","0.00","0.00"
"22:29:56","25.1","4.1","40","30.45","324","3.1","11.5","0.00","0.00"
"22:34:56","25","4","39.9","30.45","333","5.3","10.4","0.00","0.00"
"22:39:56","25","4.2","40.3","30.45","328","5.3","12","0.00","0.00"
"22:44:56","25","4.6","41","30.45","325","4.4","9.2","0.00","0.00"
"22:49:56","24.9","4.5","41","30.45","346","3.6","11.5","0.00","0.00"
"22:54:56","24.8","4.4","41","30.45","334","3.3","7","0.00","0.00"
"22:59:56","24.6","4.2","41","30.46","341","3.7","9.2","0.00","0.00"
"23:04:58","24.6","4.2","41.2","30.46","340","4.5","10.4","0.00","0.00"
"23:09:57","24.5","4.6","41.9","30.46","332","3.2","7","0.00","0.00"
"23:14:57","24.4","4.6","42","30.46","342","2.9","7","0.00","0.00"
"23:19:57","24.3","4.5","42","30.45","350","2.2","6.9","0.00","0.00"
"23:24:57","24.1","4.5","42.3","30.45","350","1.4","5.8","0.00","0.00"
"23:29:57","23.9","4.4","42.5","30.46","0","1.5","3.5","0.00","0.00"
"23:34:57","23.7","4.4","43","30.46","5","0.4","3.5","0.00","0.00"
"23:39:58","23.5","4.2","43","30.46","5","0.4","2.3","0.00","0.00"
"23:44:58","23.3","4.3","43.3","30.46","341","1.2","5","0.00","0.00"
"23:49:57","23.1","4.4","44","30.45","331","0.8","4","0.00","0.00"
"23:54:57","22.8","5.3","46.4","30.45","331","0.4","2.3","0.00","0.00"
"23:59:57","22.6","4.9","46","30.46","331","0.8","3.5","0.00","0.00"
